• In Netherlands
  • List of Countries
  • For 7 days
  • Water Temperature
  • Satellite Maps
  • Weather Map
  • Weather Widgets
  • user-avatar
    Login

    Hourly Weather Amar

    Today, 24 March, Friday

    Time Temperature Precipitation Wind Pressure Humidity
    00:00 +23°C° 0 mm 7 mps 755 mmHg 58%
    01:00 +23°C° 0.3 mm 6 mps 754 mmHg 60%
    02:00 +23°C° 0.3 mm 5 mps 754 mmHg 62%
    03:00 +22°C° 0 mm 5 mps 754 mmHg 75%
    04:00 +22°C° 1.7 mm 4 mps 754 mmHg 76%
    05:00 +21°C° 1.7 mm 4 mps 755 mmHg 77%
    06:00 +21°C° 1.7 mm 4 mps 755 mmHg 78%
    07:00 +22°C° 2.2 mm 4 mps 755 mmHg 77%
    08:00 +22°C° 2.2 mm 4 mps 756 mmHg 77%
    09:00 +23°C° 0 mm 6 mps 756 mmHg 72%
    10:00 +24°C° 0.6 mm 6 mps 756 mmHg 71%
    11:00 +24°C° 0.6 mm 7 mps 756 mmHg 71%
    12:00 +26°C° 0.6 mm 7 mps 755 mmHg 70%
    13:00 +26°C° 0.1 mm 7 mps 755 mmHg 70%
    14:00 +26°C° 0.1 mm 7 mps 754 mmHg 69%
    15:00 +26°C° 0.1 mm 7 mps 754 mmHg 69%
    16:00 +26°C° 0 mm 7 mps 754 mmHg 71%
    17:00 +26°C° 0 mm 7 mps 754 mmHg 72%
    18:00 +24°C° 0 mm 6 mps 753 mmHg 74%
    19:00 +24°C° 0 mm 6 mps 754 mmHg 76%
    20:00 +24°C° 0 mm 6 mps 754 mmHg 79%
    21:00 +23°C° 0 mm 6 mps 754 mmHg 81%
    22:00 +23°C° 0 mm 7 mps 754 mmHg 82%
    23:00 +23°C° 0 mm 7 mps 754 mmHg 84%

    Tomorrow, 25 March, Saturday

    Time Temperature Precipitation Wind Pressure Humidity
    00:00 +23°C° 0 mm 7 mps 754 mmHg 85%
    01:00 +23°C° 0 mm 7 mps 753 mmHg 85%
    02:00 +23°C° 0 mm 6 mps 753 mmHg 85%
    03:00 +23°C° 0 mm 6 mps 753 mmHg 85%
    04:00 +23°C° 0.1 mm 5 mps 753 mmHg 86%
    05:00 +23°C° 0.1 mm 4 mps 753 mmHg 86%
    06:00 +23°C° 0.1 mm 4 mps 753 mmHg 87%
    07:00 +23°C° 0.1 mm 5 mps 753 mmHg 83%
    08:00 +24°C° 0.1 mm 6 mps 754 mmHg 80%
    09:00 +26°C° 0.1 mm 6 mps 754 mmHg 76%
    10:00 +27°C° 0.1 mm 6 mps 754 mmHg 72%
    11:00 +27°C° 0.1 mm 6 mps 753 mmHg 69%
    12:00 +28°C° 0.1 mm 6 mps 753 mmHg 65%
    13:00 +29°C° 0 mm 6 mps 752 mmHg 63%
    14:00 +29°C° 0 mm 6 mps 752 mmHg 61%
    15:00 +29°C° 0 mm 6 mps 751 mmHg 58%
    16:00 +29°C° 0.1 mm 6 mps 751 mmHg 60%
    17:00 +28°C° 0.1 mm 5 mps 751 mmHg 61%
    18:00 +28°C° 0.1 mm 5 mps 752 mmHg 63%
    19:00 +27°C° 0.7 mm 5 mps 752 mmHg 66%
    20:00 +27°C° 0.7 mm 4 mps 753 mmHg 69%
    21:00 +26°C° 0.7 mm 4 mps 753 mmHg 73%
    22:00 +26°C° 0.7 mm 4 mps 753 mmHg 75%
    23:00 +25°C° 0.7 mm 5 mps 754 mmHg 77%

    Day after tomorrow, 26 March, Sunday

    Time Temperature Precipitation Wind Pressure Humidity
    00:00 +25°C° 0.7 mm 5 mps 754 mmHg 79%
    01:00 +23°C° 0.1 mm 6 mps 754 mmHg 81%
    02:00 +23°C° 0.1 mm 6 mps 754 mmHg 84%
    03:00 +22°C° 0.1 mm 7 mps 754 mmHg 86%
    04:00 +22°C° 0.3 mm 6 mps 754 mmHg 86%
    05:00 +22°C° 0.3 mm 6 mps 755 mmHg 86%
    06:00 +22°C° 0.3 mm 5 mps 755 mmHg 86%
    07:00 +23°C° 0.1 mm 5 mps 756 mmHg 82%
    08:00 +23°C° 0.1 mm 5 mps 756 mmHg 77%
    09:00 +25°C° 0.1 mm 5 mps 757 mmHg 73%
    10:00 +26°C° 0.1 mm 5 mps 757 mmHg 71%
    11:00 +26°C° 0.1 mm 5 mps 756 mmHg 68%
    12:00 +27°C° 0.1 mm 6 mps 756 mmHg 65%
    13:00 +27°C° 0.1 mm 6 mps 756 mmHg 66%
    14:00 +27°C° 0.1 mm 6 mps 755 mmHg 66%
    15:00 +26°C° 0.1 mm 7 mps 755 mmHg 66%
    16:00 +26°C° 0.1 mm 7 mps 755 mmHg 68%
    17:00 +24°C° 0.1 mm 7 mps 756 mmHg 69%
    18:00 +24°C° 0.1 mm 7 mps 756 mmHg 71%
    19:00 +23°C° 0.4 mm 6 mps 757 mmHg 71%
    20:00 +23°C° 0.4 mm 6 mps 757 mmHg 71%
    21:00 +23°C° 0.4 mm 6 mps 758 mmHg 71%
    22:00 +23°C° 0.3 mm 6 mps 758 mmHg 70%
    23:00 +22°C° 0.3 mm 6 mps 758 mmHg 70%

    27 March, Monday

    Time Temperature Precipitation Wind Pressure Humidity
    00:00 +22°C° 0.3 mm 6 mps 758 mmHg 70%
    01:00 +22°C° 0.5 mm 5 mps 758 mmHg 70%
    02:00 +22°C° 0.5 mm 4 mps 757 mmHg 69%
    03:00 +22°C° 0.5 mm 4 mps 757 mmHg 69%
    04:00 +22°C° 0.3 mm 4 mps 758 mmHg 68%
    05:00 +22°C° 0.3 mm 4 mps 758 mmHg 66%
    06:00 +22°C° 0.3 mm 4 mps 758 mmHg 65%
    07:00 +23°C° 0.1 mm 4 mps 759 mmHg 59%
    08:00 +23°C° 0.1 mm 4 mps 759 mmHg 54%
    09:00 +25°C° 0.1 mm 4 mps 760 mmHg 48%
    10:00 +26°C° 0.1 mm 3 mps 759 mmHg 45%
    11:00 +26°C° 0.1 mm 3 mps 759 mmHg 42%
    12:00 +27°C° 0.1 mm 2 mps 759 mmHg 39%
    13:00 +27°C° 0 mm 3 mps 758 mmHg 37%
    14:00 +27°C° 0 mm 3 mps 758 mmHg 36%
    15:00 +27°C° 0 mm 4 mps 758 mmHg 35%
    16:00 +27°C° 0 mm 4 mps 758 mmHg 38%
    17:00 +26°C° 0 mm 4 mps 758 mmHg 41%
    18:00 +26°C° 0 mm 4 mps 758 mmHg 43%
    19:00 +25°C° 0 mm 4 mps 759 mmHg 46%
    20:00 +25°C° 0 mm 3 mps 759 mmHg 49%
    21:00 +24°C° 0 mm 3 mps 760 mmHg 52%
    22:00 +24°C° 0 mm 3 mps 759 mmHg 54%
    23:00 +24°C° 0 mm 3 mps 759 mmHg 55%

    28 March, Tuesday

    Time Temperature Precipitation Wind Pressure Humidity
    00:00 +23°C° 0 mm 2 mps 759 mmHg 57%
    01:00 +23°C° 0 mm 2 mps 759 mmHg 57%
    02:00 +23°C° 0 mm 2 mps 758 mmHg 57%
    03:00 +23°C° 0 mm 2 mps 758 mmHg 57%
    04:00 +23°C° 0 mm 2 mps 758 mmHg 56%
    05:00 +21°C° 0 mm 2 mps 758 mmHg 55%
    06:00 +22°C° 0 mm 1 mps 759 mmHg 55%
    07:00 +24°C° 0 mm 2 mps 759 mmHg 49%
    08:00 +25°C° 0 mm 2 mps 759 mmHg 43%
    09:00 +26°C° 0 mm 2 mps 760 mmHg 37%
    10:00 +27°C° 0 mm 2 mps 759 mmHg 34%
    11:00 +28°C° 0 mm 3 mps 759 mmHg 32%
    12:00 +28°C° 0 mm 3 mps 758 mmHg 29%
    13:00 +28°C° 0 mm 3 mps 758 mmHg 29%
    14:00 +28°C° 0 mm 3 mps 757 mmHg 29%
    15:00 +29°C° 0 mm 4 mps 757 mmHg 28%
    16:00 +28°C° 0 mm 4 mps 757 mmHg 31%
    17:00 +27°C° 0 mm 4 mps 757 mmHg 33%
    18:00 +27°C° 0 mm 4 mps 758 mmHg 36%
    19:00 +26°C° 0 mm 4 mps 758 mmHg 38%
    20:00 +26°C° 0 mm 4 mps 758 mmHg 40%
    21:00 +25°C° 0 mm 4 mps 759 mmHg 42%
    22:00 +25°C° 0 mm 4 mps 758 mmHg 43%
    23:00 +25°C° 0 mm 4 mps 758 mmHg 44%

    29 March, Wednesday

    Time Temperature Precipitation Wind Pressure Humidity
    00:00 +25°C° 0 mm 3 mps 757 mmHg 45%
    01:00 +24°C° 0 mm 3 mps 757 mmHg 44%
    02:00 +24°C° 0 mm 3 mps 757 mmHg 43%
    03:00 +24°C° 0 mm 3 mps 756 mmHg 42%
    04:00 +24°C° 0 mm 3 mps 757 mmHg 42%
    05:00 +24°C° 0 mm 3 mps 757 mmHg 41%
    06:00 +24°C° 0 mm 3 mps 757 mmHg 40%
    07:00 +25°C° 0 mm 3 mps 757 mmHg 37%
    08:00 +27°C° 0 mm 3 mps 758 mmHg 35%
    09:00 +28°C° 0 mm 4 mps 758 mmHg 32%
    10:00 +28°C° 0 mm 3 mps 757 mmHg 32%
    11:00 +29°C° 0 mm 3 mps 757 mmHg 32%
    12:00 +30°C° 0 mm 3 mps 756 mmHg 32%
    13:00 +31°C° 0 mm 3 mps 756 mmHg 32%
    14:00 +31°C° 0 mm 3 mps 755 mmHg 32%
    15:00 +31°C° 0 mm 3 mps 755 mmHg 33%
    16:00 +32°C° 0 mm 4 mps 755 mmHg 35%
    17:00 +30°C° 0 mm 5 mps 755 mmHg 37%
    18:00 +29°C° 0 mm 5 mps 755 mmHg 39%
    19:00 +29°C° 0.1 mm 6 mps 755 mmHg 42%
    20:00 +29°C° 0.1 mm 6 mps 755 mmHg 45%
    21:00 +28°C° 0.1 mm 6 mps 756 mmHg 48%
    22:00 +28°C° 0.2 mm 5 mps 756 mmHg 50%
    23:00 +27°C° 0.2 mm 5 mps 755 mmHg 51%
    Show more